Location: Pedholt
(56.0260°N, 10.2097°E)
Time: 18:15:10
(UTC+00:00)

A-11 Canister half - Pass Details

Date: 28 July 2021
Orbit: 1515 x 1685 km, 47.2° (Epoch: 20 September)

Event Time Altitude Azimuth Distance (km) Brightness Sun altitude
Rises 22:29:42 0° 278° (W) 4,913 11.9 -14.3°
Reaches altitude 10° 22:33:07 10° 271° (W) 3,937 11.3 -14.4°
Maximum altitude 22:42:03 37° 209° (SSW) 2,403 9.6 -14.7°
Enters shadow 22:49:03 17° 153° (SSE) 3,427 10.2 -14.8°
Drops below altitude 10° 22:50:59 10° 147° (SSE) 3,933 - -14.9°
Sets 22:54:26 0° 139° (SE) 4,907 - -14.9°
